Spring River (Missouri), Waco (07186000)

StateMissouriLatestFlood (7040 cfs)
RiverSpring RiverRatingObservedEstimated
Updated2020-02-25 22:30 (28 minutes ago)Flood - The river is flooding. Obstacles can be treacherous or deadly. The river should be avoided at this stage for casual trips and definitely for the inexperienced. Trips should be attempted only with protective gear and equipment.Flood(none)4293
Discharge7040 cfs (median: 516 cfs)High - The river is high and potentially dangerous, especially for the young and / or inexperienced. Normal stream obstacles are sometimes difficult to navigate. Extended distances can be attempted, but canoe travel may not be advisable.High(none)573
Height10 feetGood - Conditions are ideal for a canoe or kayak. Boats typically will drag on fewer than one-quarter of riffles, if at all, and portages are unnecessary or rare. Normal float lengths can be attempted without a problem.Good(none)523
TrendFalling (falling over 24 hours)Low - River is low but can still be floated. Some riffles are okay but most come with significant dragging and might need a portage. Float lengths should be reduced to accommodate low flow, dragging, and portages.Low(none)263
USGSExternal icon USGS Site (External icon Google Maps)Poor - River is too low to float comfortably. Most or all riffles will drag or must be portaged and some obstacles (such as slick shelf rock) cause undue problems. Avoid the river at this stage for casual paddling trips.Poor(none)49

Trending Data

Plot Image

Trips for Spring River (Missouri), Waco (07186000)

DateStartEndDistanceConditionDischargeHeightFishingDetails

A total of 0 rows are displayed.

Condition Descriptions

Fishing Conditions

Fish Species

Notes

Classic Trip List

The classic River Trips application is still available for use. It is updated with the new system using a data retrofit. It is no longer maintained. The original River Trips application is no longer updated (as of 1 Dec 2016) but can be checked for errors or for the condition of the data before it was converted to the new system.

Gauge Data Table

ObservationHeightDischargeMaximum
Discharge
Minimum
Discharge
Mean
Discharge
P05P10P20P25P50
(Median)
P75P80P90P95
2020-02-25 22:30 1 7040 25600 (1985) 23 (1964) 1390 38 79 144 190 516 1060 1220 1960 4870
2020-02-25 21:30 10.01 7050 25600 (1985) 23 (1964) 1390 38 79 144 190 516 1060 1220 1960 4870
2020-02-25 20:30 9.89 6920 25600 (1985) 23 (1964) 1390 38 79 144 190 516 1060 1220 1960 4870
2020-02-25 19:30 10.04 7080 25600 (1985) 23 (1964) 1390 38 79 144 190 516 1060 1220 1960 4870
2020-02-25 18:30 10.12 7160 25600 (1985) 23 (1964) 1390 38 79 144 190 516 1060 1220 1960 4870
2020-02-25 17:30 10.13 7170 25600 (1985) 23 (1964) 1390 38 79 144 190 516 1060 1220 1960 4870
2020-02-25 16:30 10.34 7390 25600 (1985) 23 (1964) 1390 38 79 144 190 516 1060 1220 1960 4870
2020-02-25 15:30 10.44 7490 25600 (1985) 23 (1964) 1390 38 79 144 190 516 1060 1220 1960 4870
2020-02-25 14:30 10.60 7650 25600 (1985) 23 (1964) 1390 38 79 144 190 516 1060 1220 1960 4870
2020-02-25 13:30 10.67 7730 25600 (1985) 23 (1964) 1390 38 79 144 190 516 1060 1220 1960 4870
2020-02-25 12:30 10.90 7970 25600 (1985) 23 (1964) 1390 38 79 144 190 516 1060 1220 1960 4870
2020-02-25 11:30 11.13 8220 25600 (1985) 23 (1964) 1390 38 79 144 190 516 1060 1220 1960 4870
2020-02-25 10:30 11.39 8510 25600 (1985) 23 (1964) 1390 38 79 144 190 516 1060 1220 1960 4870
2020-02-25 09:30 11.71 8860 25600 (1985) 23 (1964) 1390 38 79 144 190 516 1060 1220 1960 4870
2020-02-25 08:30 12.12 9300 25600 (1985) 23 (1964) 1390 38 79 144 190 516 1060 1220 1960 4870
2020-02-25 07:30 12.51 9740 25600 (1985) 23 (1964) 1390 38 79 144 190 516 1060 1220 1960 4870
2020-02-25 06:30 12.91 10200 25600 (1985) 23 (1964) 1390 38 79 144 190 516 1060 1220 1960 4870
2020-02-25 05:30 13.28 10600 25600 (1985) 23 (1964) 1390 38 79 144 190 516 1060 1220 1960 4870
2020-02-25 04:30 13.73 11100 25600 (1985) 23 (1964) 1390 38 79 144 190 516 1060 1220 1960 4870
2020-02-25 03:30 14.07 11500 25600 (1985) 23 (1964) 1390 38 79 144 190 516 1060 1220 1960 4870
2020-02-25 02:30 14.37 11900 25600 (1985) 23 (1964) 1390 38 79 144 190 516 1060 1220 1960 4870
2020-02-25 01:30 14.37 11900 25600 (1985) 23 (1964) 1390 38 79 144 190 516 1060 1220 1960 4870
2020-02-25 00:30 14.48 12000 25600 (1985) 23 (1964) 1390 38 79 144 190 516 1060 1220 1960 4870
2020-02-24 23:30 14.68 12300 51300 (1985) 26 (1964) 1580 49 81 149 193 440 1140 1250 2580 5090
2020-02-24 22:30 14.68 12300 51300 (1985) 26 (1964) 1580 49 81 149 193 440 1140 1250 2580 5090
2020-02-24 21:30 14.71 12300 51300 (1985) 26 (1964) 1580 49 81 149 193 440 1140 1250 2580 5090
2020-02-24 20:30 14.62 12200 51300 (1985) 26 (1964) 1580 49 81 149 193 440 1140 1250 2580 5090
2020-02-24 19:30 14.61 12200 51300 (1985) 26 (1964) 1580 49 81 149 193 440 1140 1250 2580 5090
2020-02-24 18:30 14.42 12000 51300 (1985) 26 (1964) 1580 49 81 149 193 440 1140 1250 2580 5090
2020-02-24 17:30 14.47 12000 51300 (1985) 26 (1964) 1580 49 81 149 193 440 1140 1250 2580 5090
2020-02-24 16:30 14.09 11600 51300 (1985) 26 (1964) 1580 49 81 149 193 440 1140 1250 2580 5090
2020-02-24 15:30 13.74 11200 51300 (1985) 26 (1964) 1580 49 81 149 193 440 1140 1250 2580 5090
2020-02-24 14:30 13.32 10700 51300 (1985) 26 (1964) 1580 49 81 149 193 440 1140 1250 2580 5090
2020-02-24 13:30 12.84 10100 51300 (1985) 26 (1964) 1580 49 81 149 193 440 1140 1250 2580 5090
2020-02-24 12:30 12.39 9610 51300 (1985) 26 (1964) 1580 49 81 149 193 440 1140 1250 2580 5090
2020-02-24 11:30 11.68 8820 51300 (1985) 26 (1964) 1580 49 81 149 193 440 1140 1250 2580 5090
2020-02-24 10:30 10.88 7950 51300 (1985) 26 (1964) 1580 49 81 149 193 440 1140 1250 2580 5090
2020-02-24 09:30 9.98 7010 51300 (1985) 26 (1964) 1580 49 81 149 193 440 1140 1250 2580 5090
2020-02-24 08:30 9.07 6080 51300 (1985) 26 (1964) 1580 49 81 149 193 440 1140 1250 2580 5090
2020-02-24 07:30 8.23 5220 51300 (1985) 26 (1964) 1580 49 81 149 193 440 1140 1250 2580 5090
2020-02-24 06:30 7.21 4210 51300 (1985) 26 (1964) 1580 49 81 149 193 440 1140 1250 2580 5090
2020-02-24 05:30 6.40 3430 51300 (1985) 26 (1964) 1580 49 81 149 193 440 1140 1250 2580 5090
2020-02-24 04:30 5.63 2730 51300 (1985) 26 (1964) 1580 49 81 149 193 440 1140 1250 2580 5090
2020-02-24 03:30 5.01 2190 51300 (1985) 26 (1964) 1580 49 81 149 193 440 1140 1250 2580 5090
2020-02-24 02:30 4.34 1640 51300 (1985) 26 (1964) 1580 49 81 149 193 440 1140 1250 2580 5090
2020-02-24 01:30 3.74 1200 51300 (1985) 26 (1964) 1580 49 81 149 193 440 1140 1250 2580 5090
2020-02-24 00:30 3.52 1040 51300 (1985) 26 (1964) 1580 49 81 149 193 440 1140 1250 2580 5090
2020-02-23 23:30 3.42 971 46700 (1985) 28 (1964) 1560 57 78 151 196 436 1240 1320 2570 5930
2020-02-23 22:30 3.36 931 46700 (1985) 28 (1964) 1560 57 78 151 196 436 1240 1320 2570 5930
2020-02-23 21:30 3.29 885 46700 (1985) 28 (1964) 1560 57 78 151 196 436 1240 1320 2570 5930
2020-02-23 20:30 3.30 891 46700 (1985) 28 (1964) 1560 57 78 151 196 436 1240 1320 2570 5930
2020-02-23 19:30 3.29 885 46700 (1985) 28 (1964) 1560 57 78 151 196 436 1240 1320 2570 5930
2020-02-23 18:30 3.28 878 46700 (1985) 28 (1964) 1560 57 78 151 196 436 1240 1320 2570 5930
2020-02-23 17:30 3.26 866 46700 (1985) 28 (1964) 1560 57 78 151 196 436 1240 1320 2570 5930
2020-02-23 16:30 3.29 885 46700 (1985) 28 (1964) 1560 57 78 151 196 436 1240 1320 2570 5930
2020-02-23 15:30 3.26 866 46700 (1985) 28 (1964) 1560 57 78 151 196 436 1240 1320 2570 5930
2020-02-23 14:30 3.29 885 46700 (1985) 28 (1964) 1560 57 78 151 196 436 1240 1320 2570 5930
2020-02-23 13:30 3.30 891 46700 (1985) 28 (1964) 1560 57 78 151 196 436 1240 1320 2570 5930
2020-02-23 12:30 3.29 885 46700 (1985) 28 (1964) 1560 57 78 151 196 436 1240 1320 2570 5930
2020-02-23 11:30 3.29 885 46700 (1985) 28 (1964) 1560 57 78 151 196 436 1240 1320 2570 5930
2020-02-23 10:30 3.30 891 46700 (1985) 28 (1964) 1560 57 78 151 196 436 1240 1320 2570 5930
2020-02-23 09:30 3.30 891 46700 (1985) 28 (1964) 1560 57 78 151 196 436 1240 1320 2570 5930
2020-02-23 08:30 3.31 898 46700 (1985) 28 (1964) 1560 57 78 151 196 436 1240 1320 2570 5930
2020-02-23 07:30 3.31 898 46700 (1985) 28 (1964) 1560 57 78 151 196 436 1240 1320 2570 5930
2020-02-23 06:30 3.31 898 46700 (1985) 28 (1964) 1560 57 78 151 196 436 1240 1320 2570 5930
2020-02-23 05:30 3.32 904 46700 (1985) 28 (1964) 1560 57 78 151 196 436 1240 1320 2570 5930
2020-02-23 04:30 3.32 904 46700 (1985) 28 (1964) 1560 57 78 151 196 436 1240 1320 2570 5930
2020-02-23 03:30 3.30 891 46700 (1985) 28 (1964) 1560 57 78 151 196 436 1240 1320 2570 5930
2020-02-23 02:30 3.33 911 46700 (1985) 28 (1964) 1560 57 78 151 196 436 1240 1320 2570 5930
2020-02-23 01:30 3.31 898 46700 (1985) 28 (1964) 1560 57 78 151 196 436 1240 1320 2570 5930
2020-02-23 00:30 3.34 917 46700 (1985) 28 (1964) 1560 57 78 151 196 436 1240 1320 2570 5930
2020-02-22 23:30 3.32 904 15800 (1997) 29 (1954) 1320 48 90 159 207 456 1040 1210 3570 4990
2020-02-22 22:30 3.30 891 15800 (1997) 29 (1954) 1320 48 90 159 207 456 1040 1210 3570 4990
2020-02-22 21:30 3.32 904 15800 (1997) 29 (1954) 1320 48 90 159 207 456 1040 1210 3570 4990
2020-02-22 20:30 3.33 911 15800 (1997) 29 (1954) 1320 48 90 159 207 456 1040 1210 3570 4990
2020-02-22 19:30 3.35 924 15800 (1997) 29 (1954) 1320 48 90 159 207 456 1040 1210 3570 4990
2020-02-22 18:30 3.32 904 15800 (1997) 29 (1954) 1320 48 90 159 207 456 1040 1210 3570 4990
2020-02-22 17:30 3.33 911 15800 (1997) 29 (1954) 1320 48 90 159 207 456 1040 1210 3570 4990
2020-02-22 16:30 3.34 917 15800 (1997) 29 (1954) 1320 48 90 159 207 456 1040 1210 3570 4990
2020-02-22 15:30 3.34 917 15800 (1997) 29 (1954) 1320 48 90 159 207 456 1040 1210 3570 4990
2020-02-22 14:30 3.33 911 15800 (1997) 29 (1954) 1320 48 90 159 207 456 1040 1210 3570 4990
2020-02-22 13:30 3.35 924 15800 (1997) 29 (1954) 1320 48 90 159 207 456 1040 1210 3570 4990
2020-02-22 12:30 3.37 937 15800 (1997) 29 (1954) 1320 48 90 159 207 456 1040 1210 3570 4990
2020-02-22 11:30 3.38 944 15800 (1997) 29 (1954) 1320 48 90 159 207 456 1040 1210 3570 4990
2020-02-22 10:30 3.38 944 15800 (1997) 29 (1954) 1320 48 90 159 207 456 1040 1210 3570 4990
2020-02-22 09:30 3.36 931 15800 (1997) 29 (1954) 1320 48 90 159 207 456 1040 1210 3570 4990
2020-02-22 08:30 3.36 931 15800 (1997) 29 (1954) 1320 48 90 159 207 456 1040 1210 3570 4990
2020-02-22 07:30 3.39 951 15800 (1997) 29 (1954) 1320 48 90 159 207 456 1040 1210 3570 4990
2020-02-22 06:30 3.39 951 15800 (1997) 29 (1954) 1320 48 90 159 207 456 1040 1210 3570 4990
2020-02-22 05:30 3.39 951 15800 (1997) 29 (1954) 1320 48 90 159 207 456 1040 1210 3570 4990
2020-02-22 04:30 3.38 944 15800 (1997) 29 (1954) 1320 48 90 159 207 456 1040 1210 3570 4990
2020-02-22 03:30 3.40 957 15800 (1997) 29 (1954) 1320 48 90 159 207 456 1040 1210 3570 4990
2020-02-22 02:30 3.39 951 15800 (1997) 29 (1954) 1320 48 90 159 207 456 1040 1210 3570 4990
2020-02-22 01:30 3.38 944 15800 (1997) 29 (1954) 1320 48 90 159 207 456 1040 1210 3570 4990
2020-02-22 00:30 3.40 957 15800 (1997) 29 (1954) 1320 48 90 159 207 456 1040 1210 3570 4990
2020-02-21 23:30 3.42 971 18600 (1951) 30 (1964) 1230 48 81 161 212 458 892 1150 3120 6000
2020-02-21 22:30 3.40 957 18600 (1951) 30 (1964) 1230 48 81 161 212 458 892 1150 3120 6000
2020-02-21 21:30 3.42 971 18600 (1951) 30 (1964) 1230 48 81 161 212 458 892 1150 3120 6000
2020-02-21 20:30 3.41 964 18600 (1951) 30 (1964) 1230 48 81 161 212 458 892 1150 3120 6000
2020-02-21 19:30 3.38 944 18600 (1951) 30 (1964) 1230 48 81 161 212 458 892 1150 3120 6000
2020-02-21 18:30 3.41 964 18600 (1951) 30 (1964) 1230 48 81 161 212 458 892 1150 3120 6000
2020-02-21 17:30 3.43 977 18600 (1951) 30 (1964) 1230 48 81 161 212 458 892 1150 3120 6000
2020-02-21 16:30 3.45 991 18600 (1951) 30 (1964) 1230 48 81 161 212 458 892 1150 3120 6000
2020-02-21 15:30 3.45 991 18600 (1951) 30 (1964) 1230 48 81 161 212 458 892 1150 3120 6000
2020-02-21 14:30 3.46 998 18600 (1951) 30 (1964) 1230 48 81 161 212 458 892 1150 3120 6000
2020-02-21 13:30 3.47 1000 18600 (1951) 30 (1964) 1230 48 81 161 212 458 892 1150 3120 6000
2020-02-21 12:30 3.47 1000 18600 (1951) 30 (1964) 1230 48 81 161 212 458 892 1150 3120 6000
2020-02-21 11:30 3.45 991 18600 (1951) 30 (1964) 1230 48 81 161 212 458 892 1150 3120 6000
2020-02-21 10:30 3.45 991 18600 (1951) 30 (1964) 1230 48 81 161 212 458 892 1150 3120 6000
2020-02-21 09:30 3.48 1010 18600 (1951) 30 (1964) 1230 48 81 161 212 458 892 1150 3120 6000
2020-02-21 08:30 3.48 1010 18600 (1951) 30 (1964) 1230 48 81 161 212 458 892 1150 3120 6000
2020-02-21 07:30 3.46 998 18600 (1951) 30 (1964) 1230 48 81 161 212 458 892 1150 3120 6000
2020-02-21 06:30 3.47 1000 18600 (1951) 30 (1964) 1230 48 81 161 212 458 892 1150 3120 6000
2020-02-21 05:30 3.51 1030 18600 (1951) 30 (1964) 1230 48 81 161 212 458 892 1150 3120 6000
2020-02-21 04:30 3.51 1030 18600 (1951) 30 (1964) 1230 48 81 161 212 458 892 1150 3120 6000
2020-02-21 03:30 3.49 1020 18600 (1951) 30 (1964) 1230 48 81 161 212 458 892 1150 3120 6000
2020-02-21 02:30 3.50 1030 18600 (1951) 30 (1964) 1230 48 81 161 212 458 892 1150 3120 6000
2020-02-21 01:30 3.54 1050 18600 (1951) 30 (1964) 1230 48 81 161 212 458 892 1150 3120 6000
2020-02-21 00:30 3.54 1050 18600 (1951) 30 (1964) 1230 48 81 161 212 458 892 1150 3120 6000
2020-02-20 23:30 3.55 1060 15900 (1951) 30 (1964) 980 44 91 147 213 477 809 946 1780 4860
2020-02-20 22:30 3.54 1050 15900 (1951) 30 (1964) 980 44 91 147 213 477 809 946 1780 4860
2020-02-20 21:30 3.57 1070 15900 (1951) 30 (1964) 980 44 91 147 213 477 809 946 1780 4860
2020-02-20 20:30 3.54 1050 15900 (1951) 30 (1964) 980 44 91 147 213 477 809 946 1780 4860
2020-02-20 19:30 3.57 1070 15900 (1951) 30 (1964) 980 44 91 147 213 477 809 946 1780 4860
2020-02-20 18:30 3.51 1030 15900 (1951) 30 (1964) 980 44 91 147 213 477 809 946 1780 4860
2020-02-20 17:30 3.56 1070 15900 (1951) 30 (1964) 980 44 91 147 213 477 809 946 1780 4860
2020-02-20 16:30 3.56 1070 15900 (1951) 30 (1964) 980 44 91 147 213 477 809 946 1780 4860
2020-02-20 15:30 3.59 1090 15900 (1951) 30 (1964) 980 44 91 147 213 477 809 946 1780 4860
2020-02-20 14:30 3.57 1070 15900 (1951) 30 (1964) 980 44 91 147 213 477 809 946 1780 4860
2020-02-20 13:30 3.60 1100 15900 (1951) 30 (1964) 980 44 91 147 213 477 809 946 1780 4860
2020-02-20 12:30 3.61 1100 15900 (1951) 30 (1964) 980 44 91 147 213 477 809 946 1780 4860
2020-02-20 11:30 3.61 1100 15900 (1951) 30 (1964) 980 44 91 147 213 477 809 946 1780 4860
2020-02-20 10:30 3.62 1110 15900 (1951) 30 (1964) 980 44 91 147 213 477 809 946 1780 4860
2020-02-20 09:30 3.61 1100 15900 (1951) 30 (1964) 980 44 91 147 213 477 809 946 1780 4860
2020-02-20 08:30 3.65 1130 15900 (1951) 30 (1964) 980 44 91 147 213 477 809 946 1780 4860
2020-02-20 07:30 3.65 1130 15900 (1951) 30 (1964) 980 44 91 147 213 477 809 946 1780 4860
2020-02-20 06:30 3.66 1140 15900 (1951) 30 (1964) 980 44 91 147 213 477 809 946 1780 4860
2020-02-20 05:30 3.64 1120 15900 (1951) 30 (1964) 980 44 91 147 213 477 809 946 1780 4860
2020-02-20 04:30 3.68 1150 15900 (1951) 30 (1964) 980 44 91 147 213 477 809 946 1780 4860
2020-02-20 03:30 3.67 1150 15900 (1951) 30 (1964) 980 44 91 147 213 477 809 946 1780 4860
2020-02-20 02:30 3.70 1170 15900 (1951) 30 (1964) 980 44 91 147 213 477 809 946 1780 4860
2020-02-20 01:30 3.68 1150 15900 (1951) 30 (1964) 980 44 91 147 213 477 809 946 1780 4860
2020-02-20 00:30 3.70 1170 15900 (1951) 30 (1964) 980 44 91 147 213 477 809 946 1780 4860
2020-02-19 23:30 3.69 1160 10000 (1951) 30 (1954) 929 41 81 148 180 468 832 914 2230 3800
2020-02-19 22:30 3.70 1170 10000 (1951) 30 (1954) 929 41 81 148 180 468 832 914 2230 3800
2020-02-19 21:30 3.69 1160 10000 (1951) 30 (1954) 929 41 81 148 180 468 832 914 2230 3800
2020-02-19 20:30 3.72 1180 10000 (1951) 30 (1954) 929 41 81 148 180 468 832 914 2230 3800
2020-02-19 19:30 3.74 1200 10000 (1951) 30 (1954) 929 41 81 148 180 468 832 914 2230 3800
2020-02-19 18:30 3.74 1200 10000 (1951) 30 (1954) 929 41 81 148 180 468 832 914 2230 3800
2020-02-19 17:30 3.76 1210 10000 (1951) 30 (1954) 929 41 81 148 180 468 832 914 2230 3800
2020-02-19 16:30 3.73 1190 10000 (1951) 30 (1954) 929 41 81 148 180 468 832 914 2230 3800
2020-02-19 15:30 3.74 1200 10000 (1951) 30 (1954) 929 41 81 148 180 468 832 914 2230 3800
2020-02-19 14:30 3.78 1220 10000 (1951) 30 (1954) 929 41 81 148 180 468 832 914 2230 3800
2020-02-19 13:30 3.75 1200 10000 (1951) 30 (1954) 929 41 81 148 180 468 832 914 2230 3800
2020-02-19 12:30 3.78 1220 10000 (1951) 30 (1954) 929 41 81 148 180 468 832 914 2230 3800
2020-02-19 11:30 3.81 1240 10000 (1951) 30 (1954) 929 41 81 148 180 468 832 914 2230 3800
2020-02-19 10:30 3.78 1220 10000 (1951) 30 (1954) 929 41 81 148 180 468 832 914 2230 3800
2020-02-19 09:30 3.82 1250 10000 (1951) 30 (1954) 929 41 81 148 180 468 832 914 2230 3800
2020-02-19 08:30 3.81 1240 10000 (1951) 30 (1954) 929 41 81 148 180 468 832 914 2230 3800
2020-02-19 07:30 3.81 1240 10000 (1951) 30 (1954) 929 41 81 148 180 468 832 914 2230 3800
2020-02-19 06:30 3.85 1270 10000 (1951) 30 (1954) 929 41 81 148 180 468 832 914 2230 3800
2020-02-19 05:30 3.86 1280 10000 (1951) 30 (1954) 929 41 81 148 180 468 832 914 2230 3800
2020-02-19 04:30 3.87 1290 10000 (1951) 30 (1954) 929 41 81 148 180 468 832 914 2230 3800
2020-02-19 03:30 3.87 1290 10000 (1951) 30 (1954) 929 41 81 148 180 468 832 914 2230 3800
2020-02-19 02:30 3.88 1290 10000 (1951) 30 (1954) 929 41 81 148 180 468 832 914 2230 3800
2020-02-19 01:30 3.90 1310 10000 (1951) 30 (1954) 929 41 81 148 180 468 832 914 2230 3800
2020-02-19 00:30 3.88 1290 10000 (1951) 30 (1954) 929 41 81 148 180 468 832 914 2230 3800
2020-02-18 23:30 3.93 1330 12000 (2008) 27 (1954) 829 49 80 149 179 462 904 1120 1520 2780
2020-02-18 22:30 3.94 1340 12000 (2008) 27 (1954) 829 49 80 149 179 462 904 1120 1520 2780
2020-02-18 21:30 3.93 1330 12000 (2008) 27 (1954) 829 49 80 149 179 462 904 1120 1520 2780
2020-02-18 20:30 3.95 1350 12000 (2008) 27 (1954) 829 49 80 149 179 462 904 1120 1520 2780
2020-02-18 19:30 3.89 1300 12000 (2008) 27 (1954) 829 49 80 149 179 462 904 1120 1520 2780
2020-02-18 18:30 3.98 1370 12000 (2008) 27 (1954) 829 49 80 149 179 462 904 1120 1520 2780
2020-02-18 17:30 3.96 1360 12000 (2008) 27 (1954) 829 49 80 149 179 462 904 1120 1520 2780
2020-02-18 16:30 3.99 1380 12000 (2008) 27 (1954) 829 49 80 149 179 462 904 1120 1520 2780
2020-02-18 15:30 3.97 1360 12000 (2008) 27 (1954) 829 49 80 149 179 462 904 1120 1520 2780
2020-02-18 14:30 3.95 1350 12000 (2008) 27 (1954) 829 49 80 149 179 462 904 1120 1520 2780
2020-02-18 13:30 4.01 1390 12000 (2008) 27 (1954) 829 49 80 149 179 462 904 1120 1520 2780
2020-02-18 12:30 3.97 1360 12000 (2008) 27 (1954) 829 49 80 149 179 462 904 1120 1520 2780
2020-02-18 11:30 4.02 1400 12000 (2008) 27 (1954) 829 49 80 149 179 462 904 1120 1520 2780
2020-02-18 10:30 4.02 1400 12000 (2008) 27 (1954) 829 49 80 149 179 462 904 1120 1520 2780
2020-02-18 09:30 4.00 1390 12000 (2008) 27 (1954) 829 49 80 149 179 462 904 1120 1520 2780
2020-02-18 08:30 4.00 1390 12000 (2008) 27 (1954) 829 49 80 149 179 462 904 1120 1520 2780
2020-02-18 07:30 4.02 1400 12000 (2008) 27 (1954) 829 49 80 149 179 462 904 1120 1520 2780
2020-02-18 06:30 4.02 1400 12000 (2008) 27 (1954) 829 49 80 149 179 462 904 1120 1520 2780
2020-02-18 05:30 4.04 1420 12000 (2008) 27 (1954) 829 49 80 149 179 462 904 1120 1520 2780
2020-02-18 04:30 4.07 1440 12000 (2008) 27 (1954) 829 49 80 149 179 462 904 1120 1520 2780
2020-02-18 03:30 4.04 1420 12000 (2008) 27 (1954) 829 49 80 149 179 462 904 1120 1520 2780
2020-02-18 02:30 4.08 1450 12000 (2008) 27 (1954) 829 49 80 149 179 462 904 1120 1520 2780
2020-02-18 01:30 4.06 1430 12000 (2008) 27 (1954) 829 49 80 149 179 462 904 1120 1520 2780
2020-02-18 00:30 4.09 1450 12000 (2008) 27 (1954) 829 49 80 149 179 462 904 1120 1520 2780

A total of 191 rows are displayed for years 1925 through 2019.